TSO1083 URKG-UUDD

Flight info

Callsign TSO1083
Flight time 1h 54m
Altitude 37000
Route URKG/01 K0848F370 KUTO1C KUTON DCT SM A961 NZ W79 AMEPU A100 KL L91 KANON T748 PEPOR T611 TUKMO N50 OLOPI OLOP3L UUDD/32L
Aircraft B738/M-L/L

Departure

Time 2026-05-04 08:35
Airport Gelendzhik Airport (URKG)

Arrival

Time 2026-05-04 10:29
Airport Domodedovo International Airport (UUDD)
Time Latitude Longitude Altitude Speed Heading
2026-05-04 08:11 44.59450 38.02175 141 ft 0 kts 13°
2026-05-04 08:27 44.59427 38.02098 141 ft 9 kts 195°
2026-05-04 08:28 44.59395 38.02043 141 ft 8 kts 282°
2026-05-04 08:28 44.59415 38.01972 141 ft 9 kts 307°
2026-05-04 08:28 44.59454 38.01915 143 ft 8 kts 314°
2026-05-04 08:28 44.59492 38.01850 144 ft 9 kts 295°
2026-05-04 08:29 44.59473 38.01755 143 ft 13 kts 224°
2026-05-04 08:29 44.59382 38.01713 137 ft 16 kts 193°
2026-05-04 08:29 44.59255 38.01669 132 ft 21 kts 193°
2026-05-04 08:31 44.57930 38.01204 124 ft 31 kts 194°
2026-05-04 08:33 44.56855 38.00861 104 ft 7 kts 270°
2026-05-04 08:33 44.56890 38.00841 106 ft 0 kts 14°
2026-05-04 08:35 44.60060 38.01324 1499 ft 165 kts 338°
2026-05-04 08:35 44.60881 38.00204 2086 ft 169 kts 304°
2026-05-04 08:35 44.61217 37.98572 2350 ft 181 kts 268°
2026-05-04 08:35 44.60650 37.97043 2602 ft 181 kts 212°
2026-05-04 08:37 44.53003 37.99261 4246 ft 242 kts 163°
2026-05-04 08:37 44.51328 37.99907 4809 ft 254 kts 163°
2026-05-04 08:37 44.49620 38.00578 5683 ft 256 kts 163°
2026-05-04 08:38 44.48474 38.01034 6115 ft 263 kts 164°
2026-05-04 08:38 44.46150 38.01971 7246 ft 260 kts 164°
2026-05-04 08:38 44.44395 38.02684 7998 ft 265 kts 164°
2026-05-04 08:40 44.33632 38.14452 11542 ft 350 kts 119°
2026-05-04 08:40 44.32508 38.17475 12288 ft 352 kts 120°
2026-05-04 08:40 44.31342 38.20491 12994 ft 354 kts 121°
2026-05-04 08:41 44.30152 38.23516 13684 ft 358 kts 120°
2026-05-04 08:41 44.29500 38.25643 14061 ft 363 kts 107°
2026-05-04 08:41 44.29286 38.29174 14664 ft 372 kts 86°
2026-05-04 08:41 44.29987 38.32667 15319 ft 379 kts 67°
2026-05-04 08:42 44.31480 38.35726 15920 ft 388 kts 47°
2026-05-04 08:42 44.34378 38.38735 16720 ft 395 kts 36°
2026-05-04 08:42 44.36670 38.40880 17306 ft 398 kts 36°
2026-05-04 08:42 44.38228 38.42340 17689 ft 400 kts 37°
2026-05-04 08:43 44.40512 38.44490 18255 ft 403 kts 37°
2026-05-04 08:43 44.42836 38.46693 18797 ft 404 kts 37°
2026-05-04 08:43 44.45162 38.48911 19329 ft 406 kts 37°
2026-05-04 08:43 44.47497 38.51147 19852 ft 407 kts 37°
2026-05-04 08:44 44.49838 38.53396 20375 ft 409 kts 37°
2026-05-04 08:44 44.52946 38.56387 21073 ft 411 kts 37°
2026-05-04 08:46 44.68807 38.71718 24145 ft 421 kts 37°
2026-05-04 08:46 44.71223 38.74062 24499 ft 423 kts 37°
2026-05-04 08:46 44.73648 38.76416 24847 ft 425 kts 37°
2026-05-04 08:46 44.76058 38.78823 25183 ft 425 kts 41°
2026-05-04 08:47 44.78204 38.81604 25498 ft 424 kts 50°
2026-05-04 08:47 44.80016 38.84867 25841 ft 424 kts 57°
2026-05-04 08:47 44.81716 38.88270 26184 ft 426 kts 57°
2026-05-04 08:47 44.83436 38.91674 26477 ft 428 kts 57°
2026-05-04 08:48 44.85179 38.95095 26767 ft 430 kts 56°
2026-05-04 08:48 44.86934 38.98521 27048 ft 432 kts 56°
2026-05-04 08:48 44.88700 39.01963 27331 ft 434 kts 56°
2026-05-04 08:48 44.90472 39.05417 27608 ft 436 kts 56°
2026-05-04 08:49 44.92252 39.08888 27872 ft 438 kts 56°
2026-05-04 08:50 45.03059 39.30068 29403 ft 449 kts 57°
2026-05-04 08:50 45.04876 39.33644 29817 ft 447 kts 57°
2026-05-04 08:51 45.06682 39.37203 30180 ft 446 kts 57°
2026-05-04 08:51 45.08488 39.40768 30445 ft 446 kts 57°
2026-05-04 08:51 45.10273 39.44296 30686 ft 447 kts 57°
2026-05-04 08:51 45.12084 39.47880 30952 ft 448 kts 57°
2026-05-04 08:52 45.13897 39.51472 31244 ft 448 kts 57°
2026-05-04 08:52 45.15705 39.55056 31533 ft 447 kts 57°
2026-05-04 08:52 45.17511 39.58643 31786 ft 448 kts 57°
2026-05-04 08:52 45.19338 39.62219 32020 ft 450 kts 54°
2026-05-04 08:53 45.21660 39.65227 32197 ft 459 kts 34°
2026-05-04 08:54 45.44090 39.68819 33982 ft 471 kts
2026-05-04 08:55 45.47360 39.69046 34176 ft 471 kts
2026-05-04 08:55 45.50632 39.69274 34390 ft 471 kts
2026-05-04 08:55 45.53862 39.69496 34584 ft 471 kts
2026-05-04 08:55 45.57134 39.69718 34794 ft 471 kts
2026-05-04 08:57 45.79959 39.71259 36244 ft 469 kts
2026-05-04 09:01 46.25151 39.74363 37007 ft 459 kts
2026-05-04 09:01 46.31548 39.74807 37006 ft 461 kts
2026-05-04 09:02 46.37922 39.75261 37009 ft 463 kts
2026-05-04 09:02 46.44375 39.75816 37006 ft 466 kts
2026-05-04 09:03 46.50869 39.76402 37017 ft 469 kts
2026-05-04 09:03 46.57351 39.76978 37024 ft 471 kts
2026-05-04 09:04 46.63911 39.77554 37023 ft 473 kts
2026-05-04 09:04 46.70482 39.78129 37028 ft 474 kts
2026-05-04 09:05 46.77089 39.78709 37015 ft 476 kts
2026-05-04 09:05 46.83650 39.79288 37031 ft 476 kts
2026-05-04 09:06 46.90267 39.79873 37041 ft 477 kts
2026-05-04 09:08 47.16487 39.82205 37054 ft 466 kts
2026-05-04 09:08 47.19735 39.82536 36849 ft 471 kts
2026-05-04 09:08 47.22976 39.83387 36590 ft 474 kts 14°
2026-05-04 09:08 47.26182 39.84594 36356 ft 477 kts 15°
2026-05-04 09:09 47.29400 39.85835 36132 ft 478 kts 14°
2026-05-04 09:09 47.35820 39.88231 36072 ft 474 kts 13°
2026-05-04 09:10 47.42168 39.90512 36039 ft 470 kts 13°
2026-05-04 09:10 47.48476 39.92773 36043 ft 463 kts 13°
2026-05-04 09:11 47.54683 39.95188 36047 ft 459 kts 15°
2026-05-04 09:11 47.60816 39.97907 36063 ft 463 kts 16°
2026-05-04 09:12 47.66979 40.00631 36064 ft 468 kts 15°
2026-05-04 09:14 47.92128 40.11264 36068 ft 462 kts
2026-05-04 09:14 47.98387 40.12973 36080 ft 460 kts
2026-05-04 09:15 48.04666 40.14741 36082 ft 459 kts
2026-05-04 09:15 48.10934 40.16508 36083 ft 458 kts
2026-05-04 09:17 48.39404 40.22268 36092 ft 461 kts
2026-05-04 09:18 48.45767 40.23594 36091 ft 462 kts
2026-05-04 09:18 48.52085 40.24910 36085 ft 461 kts
2026-05-04 09:19 48.58439 40.26237 36092 ft 461 kts
2026-05-04 09:19 48.64783 40.27565 36096 ft 460 kts
2026-05-04 09:20 48.71115 40.28894 36090 ft 459 kts
2026-05-04 09:20 48.77387 40.30214 36099 ft 458 kts
2026-05-04 09:21 48.83694 40.31544 36090 ft 457 kts
2026-05-04 09:21 48.89992 40.32876 36097 ft 456 kts
2026-05-04 09:22 48.96277 40.34212 36096 ft 456 kts
2026-05-04 09:22 49.02516 40.35542 36098 ft 456 kts
2026-05-04 09:23 49.08797 40.36885 36101 ft 456 kts
2026-05-04 09:23 49.15075 40.38230 36098 ft 456 kts
2026-05-04 09:25 49.40142 40.43637 36101 ft 456 kts
2026-05-04 09:26 49.46419 40.45000 36105 ft 455 kts
2026-05-04 09:26 49.52688 40.46363 36101 ft 455 kts
2026-05-04 09:27 49.58948 40.47132 36099 ft 454 kts
2026-05-04 09:27 49.65257 40.47418 36102 ft 454 kts
2026-05-04 09:28 49.71567 40.47747 36102 ft 453 kts
2026-05-04 09:28 49.77874 40.48156 36098 ft 454 kts
2026-05-04 09:29 49.84140 40.48590 36098 ft 454 kts
2026-05-04 09:29 49.90445 40.49025 36096 ft 454 kts
2026-05-04 09:30 49.96748 40.49458 36103 ft 453 kts
2026-05-04 09:30 50.03054 40.49891 36097 ft 453 kts
2026-05-04 09:31 50.09248 40.51194 36087 ft 455 kts 16°
2026-05-04 09:31 50.15255 40.54277 36100 ft 454 kts 17°
2026-05-04 09:32 50.21261 40.57349 36094 ft 454 kts 17°
2026-05-04 09:34 50.45206 40.69305 36077 ft 450 kts 17°
2026-05-04 09:34 50.51167 40.72297 36090 ft 449 kts 17°
2026-05-04 09:35 50.57067 40.75266 36090 ft 448 kts 17°
2026-05-04 09:35 50.62997 40.78259 36093 ft 447 kts 16°
2026-05-04 09:37 50.86697 40.89412 36079 ft 443 kts
2026-05-04 09:38 50.92803 40.88705 36102 ft 441 kts 349°
2026-05-04 09:38 50.98860 40.87079 36089 ft 442 kts 349°
2026-05-04 09:39 51.04934 40.85488 36075 ft 443 kts 350°
2026-05-04 09:39 51.10985 40.83946 36080 ft 444 kts 350°
2026-05-04 09:40 51.17094 40.82403 36077 ft 445 kts 350°
2026-05-04 09:40 51.23205 40.80855 36070 ft 445 kts 350°
2026-05-04 09:42 51.47627 40.74621 36068 ft 444 kts 350°
2026-05-04 09:43 51.53731 40.73052 36069 ft 444 kts 350°
2026-05-04 09:43 51.59784 40.71491 36056 ft 443 kts 350°
2026-05-04 09:44 51.65865 40.69920 36059 ft 442 kts 350°
2026-05-04 09:46 51.90067 40.63611 36046 ft 440 kts 350°
2026-05-04 09:46 51.96107 40.62030 36048 ft 440 kts 350°
2026-05-04 09:47 52.02145 40.60445 36043 ft 439 kts 350°
2026-05-04 09:49 52.26212 40.54081 36037 ft 440 kts 350°
2026-05-04 09:51 52.47348 40.48415 36031 ft 439 kts 348°
2026-05-04 09:51 52.53023 40.45047 36023 ft 437 kts 330°
2026-05-04 09:52 52.58277 40.40011 36025 ft 437 kts 329°
2026-05-04 09:52 52.63538 40.35003 36016 ft 437 kts 330°
2026-05-04 09:53 52.68774 40.30073 36022 ft 436 kts 330°
2026-05-04 09:53 52.74043 40.25114 36016 ft 436 kts 330°
2026-05-04 09:54 52.79302 40.20149 36013 ft 435 kts 330°
2026-05-04 09:54 52.84556 40.15173 36010 ft 435 kts 330°
2026-05-04 09:55 52.89809 40.10187 36000 ft 435 kts 330°
2026-05-04 09:55 52.95013 40.05232 36004 ft 434 kts 330°
2026-05-04 09:56 53.00245 40.00236 36001 ft 434 kts 330°
2026-05-04 09:56 53.05472 39.95231 35996 ft 434 kts 330°
2026-05-04 09:57 53.10698 39.90213 35996 ft 434 kts 330°
2026-05-04 09:57 53.15884 39.85218 35985 ft 434 kts 330°
2026-05-04 09:58 53.21107 39.80174 35987 ft 434 kts 329°
2026-05-04 09:58 53.26362 39.75084 35347 ft 441 kts 330°
2026-05-04 10:00 53.44774 39.57439 31079 ft 426 kts 333°
2026-05-04 10:00 53.47410 39.55229 30597 ft 422 kts 334°
2026-05-04 10:02 53.65193 39.40274 27171 ft 396 kts 333°
2026-05-04 10:04 53.81955 39.25896 23941 ft 380 kts 333°
2026-05-04 10:04 53.84304 39.23872 23479 ft 378 kts 333°
2026-05-04 10:04 53.86642 39.21854 22948 ft 376 kts 333°
2026-05-04 10:04 53.88968 39.19844 22450 ft 374 kts 333°
2026-05-04 10:05 53.91280 39.17841 21965 ft 372 kts 333°
2026-05-04 10:05 53.93576 39.15849 21506 ft 369 kts 333°
2026-05-04 10:05 53.95854 39.13872 21053 ft 367 kts 333°
2026-05-04 10:05 53.98088 39.11929 20628 ft 364 kts 333°
2026-05-04 10:06 54.00334 39.09972 20179 ft 362 kts 333°
2026-05-04 10:06 54.02572 39.08021 19747 ft 360 kts 333°
2026-05-04 10:06 54.04797 39.06079 19311 ft 359 kts 333°
2026-05-04 10:08 54.17951 38.94550 16635 ft 348 kts 333°
2026-05-04 10:08 54.20065 38.92689 16353 ft 342 kts 333°
2026-05-04 10:08 54.22145 38.90855 16209 ft 332 kts 333°
2026-05-04 10:08 54.24174 38.89075 15925 ft 327 kts 334°
2026-05-04 10:09 54.26207 38.87339 15544 ft 326 kts 334°
2026-05-04 10:09 54.28233 38.85622 15175 ft 324 kts 334°
2026-05-04 10:09 54.30242 38.83919 14818 ft 323 kts 334°
2026-05-04 10:09 54.32254 38.82212 14436 ft 322 kts 334°
2026-05-04 10:10 54.34235 38.80526 14074 ft 321 kts 334°
2026-05-04 10:10 54.36230 38.78824 13702 ft 320 kts 334°
2026-05-04 10:10 54.38222 38.77119 13294 ft 319 kts 334°
2026-05-04 10:10 54.40202 38.75425 12887 ft 318 kts 334°
2026-05-04 10:11 54.42174 38.73735 12526 ft 315 kts 333°
2026-05-04 10:11 54.44129 38.72058 12148 ft 314 kts 333°
2026-05-04 10:11 54.46081 38.70381 11784 ft 312 kts 333°
2026-05-04 10:11 54.48020 38.68715 11418 ft 311 kts 333°
2026-05-04 10:12 54.49951 38.67050 11049 ft 310 kts 333°
2026-05-04 10:12 54.51875 38.65390 10700 ft 309 kts 333°
2026-05-04 10:12 54.53767 38.63751 10407 ft 306 kts 333°
2026-05-04 10:12 54.55645 38.62129 10296 ft 297 kts 333°
2026-05-04 10:13 54.57470 38.60554 10170 ft 289 kts 333°
2026-05-04 10:13 54.59240 38.59024 10064 ft 282 kts 333°
2026-05-04 10:13 54.60969 38.57529 9993 ft 273 kts 332°
2026-05-04 10:13 54.62657 38.56063 9612 ft 276 kts 333°
2026-05-04 10:14 54.64366 38.54581 9324 ft 275 kts 332°
2026-05-04 10:14 54.66074 38.53090 9024 ft 275 kts 332°
2026-05-04 10:16 54.78011 38.42710 6942 ft 274 kts 332°
2026-05-04 10:16 54.79723 38.41218 6641 ft 276 kts 332°
2026-05-04 10:16 54.81434 38.39734 6379 ft 277 kts 332°
2026-05-04 10:16 54.83162 38.38240 6171 ft 275 kts 332°
2026-05-04 10:17 54.84829 38.36768 5976 ft 270 kts 332°
2026-05-04 10:17 54.86483 38.35321 5873 ft 262 kts 332°
2026-05-04 10:19 54.97088 38.25989 5124 ft 237 kts 331°
2026-05-04 10:19 54.98523 38.24702 5031 ft 235 kts 330°
2026-05-04 10:19 54.99971 38.23388 4977 ft 234 kts 331°
2026-05-04 10:19 55.01432 38.22107 4841 ft 236 kts 331°
2026-05-04 10:20 55.02888 38.20819 4746 ft 234 kts 331°
2026-05-04 10:20 55.04336 38.19536 4666 ft 233 kts 330°
2026-05-04 10:20 55.05788 38.18245 4539 ft 235 kts 331°
2026-05-04 10:20 55.07248 38.16942 4423 ft 237 kts 331°
2026-05-04 10:21 55.08696 38.15657 4337 ft 236 kts 330°
2026-05-04 10:21 55.10159 38.14362 4232 ft 237 kts 329°
2026-05-04 10:21 55.11617 38.13060 4106 ft 234 kts 331°
2026-05-04 10:21 55.13121 38.12023 3976 ft 234 kts 344°
2026-05-04 10:22 55.16280 38.11090 3787 ft 228 kts 348°
2026-05-04 10:22 55.17833 38.10652 3743 ft 226 kts 347°
2026-05-04 10:22 55.19385 38.10182 3637 ft 225 kts 347°
2026-05-04 10:23 55.20916 38.09761 3578 ft 220 kts 349°
2026-05-04 10:23 55.22375 38.09274 3447 ft 213 kts 345°
2026-05-04 10:25 55.30039 38.01675 2698 ft 173 kts 323°
2026-05-04 10:25 55.30989 38.00598 2502 ft 159 kts 322°
2026-05-04 10:25 55.31862 37.99564 2326 ft 151 kts 320°
2026-05-04 10:25 55.32713 37.98526 2114 ft 147 kts 321°
2026-05-04 10:26 55.33558 37.97473 1947 ft 151 kts 321°
2026-05-04 10:26 55.34429 37.96460 1736 ft 149 kts 322°
2026-05-04 10:26 55.35281 37.95471 1521 ft 143 kts 321°
2026-05-04 10:26 55.36101 37.94454 1343 ft 147 kts 321°
2026-05-04 10:27 55.36927 37.93456 1149 ft 142 kts 322°
2026-05-04 10:27 55.37731 37.92483 995 ft 141 kts 323°
2026-05-04 10:27 55.38533 37.91504 786 ft 144 kts 325°
2026-05-04 10:27 55.38813 37.91170 727 ft 144 kts 324°
2026-05-04 10:28 55.39115 37.90807 661 ft 144 kts 325°
2026-05-04 10:28 55.39927 37.89837 561 ft 133 kts 325°
2026-05-04 10:28 55.40597 37.89031 568 ft 97 kts 326°
2026-05-04 10:28 55.40999 37.88549 579 ft 54 kts 325°
2026-05-04 10:29 55.41219 37.88371 579 ft 28 kts 348°
2026-05-04 10:29 55.41361 37.88357 582 ft 0 kts 19°
2026-05-04 10:29 55.41365 37.88359 582 ft 2 kts 19°
2026-05-04 10:29 55.41392 37.88379 580 ft 6 kts 35°
2026-05-04 10:30 55.41393 37.88438 579 ft 6 kts 135°
2026-05-04 10:30 55.41351 37.88490 578 ft 9 kts 144°
2026-05-04 10:30 55.41289 37.88568 578 ft 13 kts 144°
2026-05-04 10:30 55.41207 37.88662 577 ft 16 kts 147°
2026-05-04 10:31 55.41109 37.88781 580 ft 18 kts 146°
2026-05-04 10:31 55.40997 37.88914 575 ft 20 kts 145°
2026-05-04 10:32 55.40941 37.89734 569 ft 7 kts 56°
2026-05-04 10:33 55.40972 37.89813 571 ft 8 kts 55°
2026-05-04 10:33 55.41006 37.89871 569 ft 5 kts
2026-05-04 10:33 55.41035 37.89847 573 ft 5 kts 327°
2026-05-04 10:33 55.41061 37.89816 574 ft 5 kts 325°
2026-05-04 10:34 55.41086 37.89785 573 ft 5 kts 325°
2026-05-04 10:34 55.41121 37.89743 575 ft 7 kts 325°
2026-05-04 10:34 55.41161 37.89695 577 ft 7 kts 329°
2026-05-04 10:34 55.41207 37.89734 576 ft 8 kts 54°
2026-05-04 10:35 55.41240 37.89767 577 ft 5 kts 356°
2026-05-04 10:35 55.41270 37.89784 578 ft 4 kts 53°
2026-05-04 10:35 55.41279 37.89806 577 ft 0 kts 57°